| time (UTC) | temp F | wind direction | speed knots | gust knots | rain 1hr in | rain 24hr in | rain mn in | humidity % | barometer mb |
| 20260903073005 | 76 | 5 | 0.0 | 0.9 | 0.00 | 0.00 | 0.00 | 92 | 1014.9 |
| 20260903072006 | 76 | 4 | 0.0 | 1.7 | 0.00 | 0.00 | 0.00 | 92 | 1014.9 |
| 20260903071006 | 76 | 4 | 0.0 | 0.9 | 0.00 | 0.00 | 0.00 | 92 | 1014.8 |
| 20260903070006 | 76 | 3 | 0.0 | 0.9 | 0.00 | 0.00 | 0.00 | 93 | 1014.8 |
| 20260903065005 | 76 | 2 | 0.0 | 0.0 | 0.00 | 0.00 | 0.00 | 92 | 1014.8 |
| 20260903064026 | 76 | 360 | 0.0 | 0.0 | 0.00 | 0.00 | 0.00 | 92 | 1014.8 |
| 20260903063026 | 76 | 3 | 0.0 | 0.0 | 0.00 | 0.00 | 0.00 | 91 | 1014.8 |
| 20260903062005 | 77 | 4 | 0.0 | 0.0 | 0.00 | 0.00 | 0.00 | 90 | 1014.9 |
| 20260903061006 | 77 | 7 | 0.0 | 1.7 | 0.00 | 0.00 | 0.00 | 91 | 1014.8 |
| 20260903060005 | 77 | 7 | 0.9 | 2.6 | 0.00 | 0.00 | 0.00 | 91 | 1014.9 |
| 20260903055006 | 77 | 6 | 0.9 | 1.7 | 0.00 | 0.00 | 0.00 | 91 | 1014.9 |
| 20260903054005 | 77 | 5 | 0.0 | 1.7 | 0.00 | 0.00 | 0.00 | 91 | 1015.0 |
| 20260903053005 | 77 | 4 | 0.0 | 0.9 | 0.00 | 0.00 | 0.00 | 91 | 1015.0 |
| 20260903052006 | 77 | 7 | 0.0 | 0.0 | 0.00 | 0.00 | 0.00 | 89 | 1015.1 |
| 20260903051006 | 77 | 8 | 0.0 | 0.0 | 0.00 | 0.00 | 0.00 | 90 | 1015.0 |
| 20260903050005 | 77 | 11 | 0.0 | 0.0 | 0.00 | 0.00 | 0.00 | 89 | 1014.9 |
| 20260903045005 | 77 | 15 | 0.0 | 0.0 | 0.00 | 0.00 | 0.00 | 88 | 1015.0 |
| 20260903044006 | 78 | 18 | 0.0 | 0.0 | 0.00 | 0.00 | 0.00 | 88 | 1014.9 |
| 20260903043005 | 78 | 17 | 0.0 | 0.0 | 0.00 | 0.00 | 0.00 | 87 | 1014.9 |
| 20260903042026 | 78 | 19 | 0.0 | 0.0 | 0.00 | 0.00 | 0.00 | 87 | 1014.9 |
| 20260903041005 | 78 | 19 | 0.0 | 0.0 | 0.00 | 0.00 | 0.00 | 86 | 1014.8 |
| 20260903040008 | 79 | 343 | 0.0 | 0.0 | 0.00 | 0.00 | 0.00 | 85 | 1014.9 |
| 20260903035006 | 79 | 16 | 0.0 | 0.0 | 0.00 | 0.00 | 0.00 | 85 | 1014.9 |
| 20260903034006 | 80 | 18 | 0.0 | 0.0 | 0.00 | 0.00 | 0.00 | 84 | 1014.9 |
| 20260903033026 | 80 | 17 | 0.0 | 0.0 | 0.00 | 0.00 | 0.00 | 83 | 1015.0 |
| 20260903032005 | 80 | 19 | 0.0 | 0.9 | 0.00 | 0.00 | 0.00 | 82 | 1015.0 |
| 20260903031028 | 81 | 14 | 0.0 | 1.7 | 0.00 | 0.00 | 0.00 | 81 | 1015.0 |
| 20260903030005 | 81 | 19 | 0.0 | 1.7 | 0.00 | 0.00 | 0.00 | 79 | 1015.1 |
| 20260903025006 | 82 | 17 | 0.9 | 2.6 | 0.00 | 0.00 | 0.00 | 78 | 1015.2 |
| 20260903024007 | 82 | 18 | 0.0 | 0.0 | 0.00 | 0.00 | 0.00 | 76 | 1015.1 |
| 20260903023006 | 82 | 18 | 0.0 | 2.6 | 0.00 | 0.00 | 0.00 | 75 | 1015.2 |
| 20260903022027 | 82 | 23 | 0.0 | 0.0 | 0.00 | 0.00 | 0.00 | 76 | 1015.2 |
| 20260903021005 | 83 | 25 | 0.0 | 0.0 | 0.00 | 0.00 | 0.00 | 72 | 1015.2 |
| 20260903020006 | 84 | 23 | 0.0 | 0.0 | 0.00 | 0.00 | 0.00 | 72 | 1015.2 |
| 20260903015006 | 84 | 24 | 0.0 | 0.0 | 0.00 | 0.00 | 0.00 | 71 | 1015.2 |
| 20260903014027 | 84 | 343 | 0.0 | 0.0 | 0.00 | 0.00 | 0.00 | 71 | 1015.1 |
| 20260903013005 | 84 | 343 | 0.0 | 0.0 | 0.00 | 0.00 | 0.00 | 71 | 1015.1 |
| 20260903012028 | 84 | 343 | 0.0 | 0.0 | 0.00 | 0.00 | 0.00 | 70 | 1014.9 |
| 20260903011005 | 85 | 343 | 0.0 | 0.0 | 0.00 | 0.00 | 0.00 | 70 | 1014.8 |
| 20260903010006 | 85 | 343 | 0.0 | 0.0 | 0.00 | 0.00 | 0.00 | 70 | 1014.7 |
| 20260903005027 | 85 | 343 | 0.0 | 0.0 | 0.00 | 0.00 | 0.00 | 69 | 1014.7 |
| 20260903004006 | 86 | 343 | 0.0 | 0.0 | 0.00 | 0.00 | 0.00 | 68 | 1014.5 |
| 20260903003005 | 87 | 343 | 0.0 | 0.0 | 0.00 | 0.00 | 0.00 | 67 | 1014.5 |
| 20260903002028 | 87 | 343 | 0.0 | 0.0 | 0.00 | 0.00 | 0.00 | 66 | 1014.5 |
| 20260903001027 | 88 | 161 | 0.0 | 0.0 | 0.00 | 0.00 | 0.00 | 65 | 1014.4 |
| 20260903000005 | 88 | 169 | 0.0 | 0.0 | 0.00 | 0.00 | 0.00 | 64 | 1014.5 |
| 20260902235006 | 89 | 169 | 0.0 | 0.0 | 0.00 | 0.00 | 0.00 | 63 | 1014.6 |
| 20260902234005 | 89 | 168 | 0.0 | 0.0 | 0.00 | 0.00 | 0.00 | 63 | 1014.6 |
| 20260902233027 | 90 | 169 | 0.0 | 0.0 | 0.00 | 0.00 | 0.00 | 62 | 1014.7 |
| 20260902232005 | 90 | 169 | 0.0 | 0.0 | 0.00 | 0.00 | 0.00 | 61 | 1014.7 |
| 20260902231006 | 91 | 169 | 0.0 | 0.9 | 0.00 | 0.00 | 0.00 | 60 | 1014.7 |
| 20260902230005 | 92 | 169 | 0.0 | 1.7 | 0.00 | 0.00 | 0.00 | 58 | 1014.8 |
| 20260902225006 | 93 | 192 | 1.7 | 2.6 | 0.00 | 0.00 | 0.00 | 56 | 1014.7 |
| 20260902224005 | 94 | 143 | 0.0 | 2.6 | 0.00 | 0.00 | 0.00 | 56 | 1014.8 |
| 20260902223006 | 95 | 149 | 0.0 | 2.6 | 0.00 | 0.00 | 0.00 | 54 | 1014.8 |
| 20260902222005 | 95 | 149 | 0.0 | 2.6 | 0.00 | 0.00 | 0.00 | 53 | 1014.8 |
| 20260902221005 | 95 | 216 | 0.0 | 3.5 | 0.00 | 0.00 | 0.00 | 53 | 1014.9 |
| 20260902220027 | 95 | 233 | 0.9 | 3.5 | 0.00 | 0.00 | 0.00 | 53 | 1014.9 |
| 20260902215005 | 95 | 287 | 0.9 | 3.5 | 0.00 | 0.00 | 0.00 | 51 | 1014.9 |
| 20260902214005 | 95 | 165 | 2.6 | 4.3 | 0.00 | 0.00 | 0.00 | 50 | 1014.9 |
| 20260902213027 | 96 | 228 | 0.9 | 2.6 | 0.00 | 0.00 | 0.00 | 50 | 1014.9 |
| 20260902212027 | 96 | 167 | 2.6 | 5.2 | 0.00 | 0.00 | 0.00 | 51 | 1015.0 |
| 20260902211007 | 96 | 267 | 0.9 | 6.1 | 0.00 | 0.00 | 0.00 | 52 | 1015.0 |
| 20260902210049 | 96 | 257 | 0.9 | 4.3 | 0.00 | 0.00 | 0.00 | 52 | 1015.0 |
| 20260902205005 | 95 | 297 | 0.9 | 2.6 | 0.00 | 0.00 | 0.00 | 52 | 1015.1 |
| 20260902204027 | 94 | 164 | 2.6 | 7.8 | 0.00 | 0.00 | 0.00 | 53 | 1015.1 |
| 20260902203006 | 95 | 173 | 3.5 | 6.1 | 0.00 | 0.00 | 0.00 | 51 | 1015.2 |
| 20260902202048 | 94 | 134 | 0.9 | 4.3 | 0.00 | 0.00 | 0.00 | 56 | 1015.2 |
| 20260902201006 | 95 | 175 | 3.5 | 7.8 | 0.00 | 0.00 | 0.00 | 53 | 1015.3 |
| 20260902200006 | 96 | 197 | 2.6 | 5.2 | 0.00 | 0.00 | 0.00 | 51 | 1015.4 |
| 20260902195005 | 95 | 231 | 0.9 | 7.8 | 0.00 | 0.00 | 0.00 | 52 | 1015.7 |
| 20260902194005 | 95 | 249 | 0.9 | 3.5 | 0.00 | 0.00 | 0.00 | 52 | 1015.7 |
| 20260902193006 | 95 | 145 | 4.3 | 7.0 | 0.00 | 0.00 | 0.00 | 54 | 1015.8 |
| 20260902192028 | 95 | 180 | 1.7 | 3.5 | 0.00 | 0.00 | 0.00 | 56 | 1016.0 |
| 20260902191005 | 94 | 182 | 0.9 | 6.1 | 0.00 | 0.00 | 0.00 | 55 | 1016.0 |
| 20260902190006 | 93 | 166 | 2.6 | 6.1 | 0.00 | 0.00 | 0.00 | 55 | 1016.1 |
| 20260902185006 | 95 | 173 | 4.3 | 7.8 | 0.00 | 0.00 | 0.00 | 53 | 1016.1 |
| 20260902184005 | 95 | 213 | 1.7 | 6.1 | 0.00 | 0.00 | 0.00 | 55 | 1016.2 |
| 20260902183027 | 94 | 269 | 1.7 | 4.3 | 0.00 | 0.00 | 0.00 | 56 | 1016.2 |
| 20260902182005 | 93 | 186 | 2.6 | 7.0 | 0.00 | 0.00 | 0.00 | 57 | 1016.2 |
| 20260902181005 | 94 | 158 | 3.5 | 7.0 | 0.00 | 0.00 | 0.00 | 57 | 1016.3 |
| 20260902180007 | 95 | 182 | 1.7 | 4.3 | 0.00 | 0.00 | 0.00 | 57 | 1016.5 |
| 20260902174005 | 94 | 231 | 0.9 | 6.1 | 0.00 | 0.00 | 0.00 | 60 | 1016.8 |
| 20260902173006 | 93 | 199 | 3.5 | 6.1 | 0.00 | 0.00 | 0.00 | 60 | 1016.9 |
| 20260902172027 | 94 | 139 | 4.3 | 9.6 | 0.00 | 0.00 | 0.00 | 58 | 1016.9 |
| 20260902171005 | 93 | 61 | 0.0 | 2.6 | 0.00 | 0.00 | 0.00 | 61 | 1017.1 |
| 20260902170006 | 92 | 170 | 0.9 | 4.3 | 0.00 | 0.00 | 0.00 | 63 | 1017.3 |
| 20260902165005 | 92 | 326 | 0.9 | 3.5 | 0.00 | 0.00 | 0.00 | 66 | 1017.2 |
| 20260902164005 | 91 | 140 | 0.0 | 6.1 | 0.00 | 0.00 | 0.00 | 69 | 1017.3 |
| 20260902163006 | 90 | 147 | 0.9 | 5.2 | 0.00 | 0.00 | 0.00 | 68 | 1017.5 |
| 20260902162005 | 90 | 303 | 0.0 | 2.6 | 0.00 | 0.00 | 0.00 | 72 | 1017.7 |
| 20260902161006 | 89 | 288 | 0.9 | 2.6 | 0.00 | 0.00 | 0.00 | 71 | 1017.8 |
| 20260902160008 | 88 | 221 | 0.0 | 2.6 | 0.00 | 0.00 | 0.00 | 72 | 1017.9 |
| 20260902155006 | 88 | 193 | 1.7 | 3.5 | 0.00 | 0.00 | 0.00 | 73 | 1018.0 |
| 20260902154006 | 87 | 179 | 0.0 | 2.6 | 0.00 | 0.00 | 0.00 | 72 | 1017.9 |
| 20260902153005 | 87 | 177 | 0.0 | 1.7 | 0.00 | 0.00 | 0.00 | 75 | 1017.9 |
| 20260902152006 | 86 | 162 | 0.0 | 1.7 | 0.00 | 0.00 | 0.00 | 75 | 1017.8 |
| 20260902151006 | 85 | 188 | 0.9 | 3.5 | 0.00 | 0.00 | 0.00 | 78 | 1017.8 |
| 20260902150005 | 85 | 201 | 0.0 | 4.3 | 0.00 | 0.00 | 0.00 | 78 | 1017.7 |
| 20260902145006 | 84 | 195 | 1.7 | 4.3 | 0.00 | 0.00 | 0.00 | 79 | 1017.7 |
| 20260902144005 | 83 | 172 | 0.9 | 3.5 | 0.00 | 0.00 | 0.00 | 80 | 1017.7 |
| 20260902143028 | 82 | 220 | 0.0 | 1.7 | 0.00 | 0.00 | 0.00 | 80 | 1017.7 |
| 20260902142006 | 82 | 209 | 0.0 | 4.3 | 0.00 | 0.00 | 0.00 | 81 | 1017.8 |
| 20260902141006 | 81 | 175 | 0.9 | 4.3 | 0.00 | 0.00 | 0.00 | 82 | 1017.7 |
| 20260902140005 | 80 | 158 | 1.7 | 2.6 | 0.00 | 0.00 | 0.00 | 84 | 1017.7 |
| 20260902135027 | 79 | 185 | 0.0 | 4.3 | 0.00 | 0.00 | 0.00 | 87 | 1017.6 |
| 20260902134027 | 78 | 198 | 0.9 | 3.5 | 0.00 | 0.00 | 0.00 | 87 | 1017.6 |
| 20260902133005 | 77 | 344 | 0.0 | 2.6 | 0.00 | 0.00 | 0.00 | 88 | 1017.6 |
| 20260902132006 | 76 | 4 | 0.9 | 3.5 | 0.00 | 0.00 | 0.00 | 90 | 1017.6 |
| 20260902131005 | 75 | 342 | 1.7 | 2.6 | 0.00 | 0.00 | 0.00 | 91 | 1017.7 |
| 20260902130005 | 75 | 149 | 0.9 | 3.5 | 0.00 | 0.00 | 0.00 | 92 | 1017.5 |
| 20260902125049 | 75 | 354 | 1.7 | 3.5 | 0.00 | 0.00 | 0.00 | 93 | 1017.4 |
| 20260902124027 | 74 | 156 | 0.9 | 2.6 | 0.00 | 0.00 | 0.00 | 95 | 1017.5 |
| 20260902123006 | 74 | 156 | 0.9 | 2.6 | 0.00 | 0.00 | 0.00 | 95 | 1017.5 |
| 20260902122006 | 73 | 156 | 0.9 | 2.6 | 0.00 | 0.00 | 0.00 | 95 | 1017.3 |
| 20260902121006 | 73 | 172 | 0.9 | 1.7 | 0.00 | 0.00 | 0.00 | 95 | 1017.3 |
| 20260902120027 | 73 | 172 | 0.0 | 0.0 | 0.00 | 0.00 | 0.00 | 96 | 1017.2 |
| 20260902115006 | 73 | 172 | 0.0 | 0.0 | 0.00 | 0.00 | 0.00 | 96 | 1017.2 |
| 20260902114005 | 73 | 172 | 0.0 | 0.0 | 0.00 | 0.00 | 0.00 | 96 | 1017.0 |
| 20260902113006 | 73 | 172 | 0.0 | 0.9 | 0.00 | 0.00 | 0.00 | 96 | 1016.9 |
| 20260902112005 | 73 | 172 | 0.9 | 1.7 | 0.00 | 0.00 | 0.00 | 96 | 1016.8 |
| 20260902111006 | 73 | 172 | 0.0 | 1.7 | 0.00 | 0.00 | 0.00 | 95 | 1016.8 |
| 20260902110008 | 73 | 172 | 0.9 | 2.6 | 0.00 | 0.00 | 0.00 | 95 | 1016.7 |
| 20260902105005 | 73 | 172 | 0.9 | 2.6 | 0.00 | 0.00 | 0.00 | 95 | 1016.7 |
| 20260902104006 | 73 | 173 | 0.0 | 1.7 | 0.00 | 0.00 | 0.00 | 95 | 1016.6 |
| 20260902103006 | 73 | 173 | 0.0 | 0.0 | 0.00 | 0.00 | 0.00 | 95 | 1016.6 |
| 20260902102006 | 73 | 173 | 0.0 | 0.0 | 0.00 | 0.00 | 0.00 | 95 | 1016.5 |
| 20260902101005 | 73 | 173 | 0.0 | 0.0 | 0.00 | 0.00 | 0.00 | 95 | 1016.5 |
| 20260902100006 | 73 | 173 | 0.0 | 0.0 | 0.00 | 0.00 | 0.00 | 96 | 1016.4 |
| 20260902095027 | 73 | 173 | 0.0 | 0.0 | 0.00 | 0.00 | 0.00 | 95 | 1016.3 |
| 20260902094006 | 73 | 173 | 0.0 | 0.0 | 0.00 | 0.00 | 0.00 | 96 | 1016.3 |
| 20260902093005 | 73 | 173 | 0.0 | 0.0 | 0.00 | 0.00 | 0.00 | 96 | 1016.3 |
| 20260902092006 | 73 | 173 | 0.0 | 0.0 | 0.00 | 0.00 | 0.00 | 96 | 1016.3 |
| 20260902091005 | 73 | 173 | 0.0 | 0.0 | 0.00 | 0.00 | 0.00 | 96 | 1016.2 |
| 20260902090006 | 72 | 173 | 0.0 | 0.0 | 0.00 | 0.00 | 0.00 | 95 | 1016.2 |
| 20260902085006 | 73 | 173 | 0.0 | 0.0 | 0.00 | 0.00 | 0.00 | 95 | 1016.2 |
| 20260902084006 | 73 | 173 | 0.0 | 0.0 | 0.00 | 0.00 | 0.00 | 94 | 1016.0 |
| 20260902083006 | 73 | 173 | 0.0 | 0.0 | 0.00 | 0.00 | 0.00 | 95 | 1016.0 |
| 20260902082005 | 73 | 173 | 0.0 | 0.0 | 0.00 | 0.00 | 0.00 | 94 | 1016.0 |
| 20260902081005 | 73 | 173 | 0.0 | 0.0 | 0.00 | 0.00 | 0.00 | 94 | 1016.1 |
| 20260902080006 | 73 | 173 | 0.0 | 0.0 | 0.00 | 0.00 | 0.00 | 93 | 1016.0 |
| 20260902075005 | 74 | 173 | 0.0 | 0.0 | 0.00 | 0.00 | 0.00 | 93 | 1016.0 |
| 20260902074006 | 74 | 173 | 0.0 | 0.0 | 0.00 | 0.00 | 0.00 | 93 | 1016.0 |